This demonstration page uses our WeatherBlox Daily Observations layout. Learn more.

39.92423, -83.80882

Hourly Observations for May 7, 2017

Temp ( °F °C ) Dew Point ( °F °C ) Humidity (%) Winds ( mph kmh ) Pressure ( in mb ) Visibility ( mi km ) Precip ( " mm )
12:56 am 00:56 Clear 43 6.1 34 1.1 71 71 W 8 13 29.8 1009 10 16.0934 0 0
1:56 am 01:56 Clear 42 5.6 33 0.6 71 71 WNW 9 15 29.8 1009 10 16.0934 0 0
2:56 am 02:56 Clear 41 5 31 -0.6 67 67 WNW 9 15 29.81 1009 10 16.0934 0 0
3:56 am 03:56 Clear 40 4.4 29 -1.7 65 65 WNW 10 17 29.81 1010 10 16.0934 0 0
4:56 am 04:56 Clear 38 3.3 29 -1.7 70 70 WNW 8 13 29.84 1010 10 16.0934 0 0
5:56 am 05:56 Clear 36 2.2 30 -1.1 79 79 WNW 8 13 29.86 1011 10 16.0934 0 0
6:56 am 06:56 Sunny 37 2.8 30 -1.1 76 76 WNW 10 17 29.87 1012 10 16.0934 0 0
7:56 am 07:56 Sunny 40 4.4 30 -1.1 68 68 NW 13 20 29.91 1013 10 16.0934 0 0
8:56 am 08:56 Sunny 43 6.1 31 -0.6 63 63 WNW 16 26 29.93 1014 10 16.0934 0 0
9:56 am 09:56 Sunny 45 7.2 32 0 61 61 WNW 14 22 29.95 1014 10 16.0934 0 0
10:56 am 10:56 Sunny 48 8.9 33 0.6 56 56 WNW 15 24 29.95 1014 10 16.0934 0 0
11:56 am 11:56 Sunny 51 10.6 33 0.6 50 50 WNW 16 26 29.96 1014 10 16.0934 0 0
12:56 pm 12:56 Sunny 54 12.2 33 0.6 45 45 WNW 18 30 29.95 1014 10 16.0934 0 0
1:56 pm 13:56 Sunny 56 13.3 32 0 40 40 WNW 15 24 29.94 1014 10 16.0934 0 0
2:56 pm 14:56 Sunny 57 13.9 33 0.6 41 41 WNW 21 33 29.94 1014 10 16.0934 0 0
3:56 pm 15:56 Mostly Sunny 57 13.9 32 0 39 39 NW 22 35 29.93 1014 10 16.0934 0 0
4:56 pm 16:56 Partly Cloudy 57 13.9 32 0 39 39 NW 18 30 29.93 1013 10 16.0934 0 0
5:56 pm 17:56 Cloudy 57 13.9 32 0 39 39 WNW 13 20 29.93 1014 10 16.0934 0 0
7:56 pm 19:56 Sunny 52 11.1 28 -2.2 40 40 NW 16 26 29.97 1015 10 16.0934 0 0
8:56 pm 20:56 Clear 49 9.4 26 -3.3 41 41 NW 13 20 29.99 1016 10 16.0934 0 0
9:56 pm 21:56 Clear 45 7.2 23 -5 42 42 NW 9 15 30.01 1016 10 16.0934 0 0
10:56 pm 22:56 Clear 43 6.1 25 -3.9 49 49 NW 8 13 30.01 1016 10 16.0934 0 0
11:56 pm 23:56 Clear 42 5.6 24 -4.4 49 49 NW 12 19 30.01 1016 10 16.0934 0 0

Powered by AerisWeather